Weather History for Newcastle, WY

Change the Weather History Date:

Sunday, May 26, 2013

  Actual Average (KCUT) Record (KCUT)
Temperature  
Mean Temperature 62 °F 51 °F  
Max Temperature 73 °F 63 °F 88 °F (1972)
Min Temperature 51 °F 39 °F 23 °F (1950)
Degree Days  
Heating Degree Days 3 14  
Month to date heating degree days 453  
Since 1 July heating degree days 8103  
Cooling Degree Days 0 0  
Month to date cooling degree days 0  
Year to date cooling degree days 0  
Growing Degree Days 12 (Base 50)    
Moisture  
Dew Point 51 °F    
Average Humidity 61    
Maximum Humidity 94    
Minimum Humidity 44    
Precipitation  
Precipitation 0.00 in 0.10 in 1.58 in (1963)
Month to date precipitation 2.56  
Year to date precipitation 6.55  
Sea Level Pressure  
Sea Level Pressure 29.89 in    
Wind  
Wind Speed 12 mph (SSE)    
Max Wind Speed 22 mph    
Max Gust Speed 31 mph    
Visibility 10 miles    
Events      
T = Trace of Precipitation, MM = Missing Value Source: NWS Daily Summary

Daily Weather History Graph

Daily Weather History Graph

Search for Another Location

Airport:

Trip Planner

Search our weather history database for the weather conditions in past years. The results will help you decide how hot, cold, wet, or windy it might be!

Date:

Astronomy

May. 26, 2013 Rise Set
Actual Time 5:21 AM MDT 8:27 PM MDT
Civil Twilight 4:46 AM MDT 9:02 PM MDT
Nautical Twilight 4:02 AM MDT 9:47 PM MDT
Astronomical Twilight 3:08 AM MDT 10:41 PM MDT
Moon 10:16 PM MDT (5/26) 6:53 AM MDT (5/26)
Length of Visible Light 16h 15m
Length of Day
15h 06m
Waning Gibbous, 96% of the Moon is Illuminated
May 26
Waning Gibbous
May 31
Last Quarter
Jun 8
New
Jun 16
First Quarter
Jun 23
Full

Hourly Weather History & Observations

Time (MDT) Temp. Dew Point Humidity Pressure Visibility Wind Dir Wind Speed Gust Speed Precip Events Conditions
12:15 AM 68.0 °F 46.4 °F 46% 29.84 in 10.0 mi East 13.8 mph - N/A   Clear
12:35 AM 68.0 °F 46.4 °F 46% 29.83 in 10.0 mi ESE 15.0 mph - N/A   Clear
12:55 AM 68.0 °F 46.4 °F 46% 29.83 in 10.0 mi North - - N/A   Clear
1:15 AM 66.2 °F 48.2 °F 52% 29.83 in 10.0 mi East 13.8 mph - N/A   Clear
1:35 AM 66.2 °F 48.2 °F 52% 29.82 in 10.0 mi East 13.8 mph - N/A   Clear
1:55 AM 66.2 °F 48.2 °F 52% 29.82 in 10.0 mi ESE 11.5 mph - N/A   Clear
2:15 AM 64.4 °F 50.0 °F 59% 29.83 in 10.0 mi North - - N/A   Clear
2:35 AM 59.0 °F 48.2 °F 67% 29.86 in 10.0 mi West 11.5 mph - N/A   Clear
2:55 AM 57.2 °F 50.0 °F 77% 29.87 in 10.0 mi North 10.4 mph - N/A   Clear
3:15 AM 57.2 °F 50.0 °F 77% 29.87 in 10.0 mi North 8.1 mph - N/A   Clear
3:35 AM 55.4 °F 50.0 °F 82% 29.87 in 10.0 mi NW 6.9 mph - N/A   Clear
3:55 AM 55.4 °F 50.0 °F 82% 29.89 in 10.0 mi NW 13.8 mph 19.6 mph N/A   Clear
4:15 AM 53.6 °F 50.0 °F 88% 29.90 in 10.0 mi NNW 19.6 mph 25.3 mph N/A   Scattered Clouds
4:35 AM 53.6 °F 51.8 °F 94% 29.91 in 10.0 mi NNW 17.3 mph 21.9 mph N/A   Mostly Cloudy
4:55 AM 53.6 °F 51.8 °F 94% 29.91 in 10.0 mi NNW 15.0 mph 21.9 mph N/A   Overcast
5:15 AM 53.6 °F 50.0 °F 88% 29.91 in 10.0 mi NW 12.7 mph - N/A   Mostly Cloudy
5:35 AM 53.6 °F 50.0 °F 88% 29.90 in 10.0 mi NNW 13.8 mph 19.6 mph N/A   Clear
5:55 AM 51.8 °F 50.0 °F 94% 29.91 in 10.0 mi NNW 10.4 mph - N/A   Clear
6:15 AM 53.6 °F 50.0 °F 88% 29.90 in 10.0 mi North 13.8 mph - N/A   Clear
6:35 AM 57.2 °F 50.0 °F 77% 29.90 in 10.0 mi North 9.2 mph - N/A   Clear
6:55 AM 62.6 °F 50.0 °F 63% 29.90 in 10.0 mi North 10.4 mph - N/A   Clear
7:15 AM 64.4 °F 50.0 °F 59% 29.90 in 10.0 mi NNE 6.9 mph - N/A   Clear
7:35 AM 66.2 °F 50.0 °F 56% 29.91 in 10.0 mi SE 3.5 mph - N/A   Clear
7:55 AM 66.2 °F 50.0 °F 56% 29.92 in 10.0 mi South 9.2 mph - N/A   Clear
8:15 AM 64.4 °F 51.8 °F 64% 29.92 in 10.0 mi SSW 8.1 mph - N/A   Clear
8:35 AM 68.0 °F 51.8 °F 56% 29.92 in 10.0 mi South 8.1 mph - N/A   Clear
8:55 AM 68.0 °F 51.8 °F 56% 29.93 in 10.0 mi South 8.1 mph - N/A   Clear
9:15 AM 69.8 °F 50.0 °F 49% 29.93 in 10.0 mi SSE 10.4 mph 16.1 mph N/A   Clear
9:35 AM 68.0 °F 51.8 °F 56% 29.94 in 10.0 mi South 13.8 mph 18.4 mph N/A   Clear
9:55 AM 69.8 °F 51.8 °F 53% 29.94 in 10.0 mi South 13.8 mph 18.4 mph N/A   Clear
10:15 AM 68.0 °F 53.6 °F 60% 29.94 in 10.0 mi SSE 15.0 mph 21.9 mph N/A   Scattered Clouds
10:35 AM 68.0 °F 53.6 °F 60% 29.95 in 10.0 mi South 17.3 mph - N/A   Scattered Clouds
10:55 AM 68.0 °F 53.6 °F 60% 29.95 in 10.0 mi South 16.1 mph 19.6 mph N/A   Scattered Clouds
11:15 AM 69.8 °F 51.8 °F 53% 29.95 in 10.0 mi South 10.4 mph - N/A   Scattered Clouds
11:35 AM 69.8 °F 51.8 °F 53% 29.95 in 10.0 mi SSW 10.4 mph 16.1 mph N/A   Scattered Clouds
11:55 AM 69.8 °F 50.0 °F 49% 29.95 in 10.0 mi South 9.2 mph 20.7 mph N/A   Scattered Clouds
12:15 PM 69.8 °F 50.0 °F 49% 29.94 in 10.0 mi South 9.2 mph - N/A   Scattered Clouds
12:35 PM 71.6 °F 50.0 °F 46% 29.94 in 10.0 mi South 6.9 mph - N/A   Scattered Clouds
12:55 PM 71.6 °F 50.0 °F 46% 29.94 in 10.0 mi North - - N/A   Scattered Clouds
1:15 PM 71.6 °F 50.0 °F 46% 29.94 in 10.0 mi South 6.9 mph 17.3 mph N/A   Scattered Clouds
1:35 PM 73.4 °F 50.0 °F 44% 29.93 in 10.0 mi South 11.5 mph 19.6 mph N/A   Scattered Clouds
1:55 PM 73.4 °F 50.0 °F 44% 29.93 in 10.0 mi North - - N/A   Scattered Clouds
2:15 PM 71.6 °F 50.0 °F 46% 29.92 in 10.0 mi North - - N/A   Scattered Clouds
2:35 PM 71.6 °F 50.0 °F 46% 29.92 in 10.0 mi South 8.1 mph - N/A   Scattered Clouds
2:55 PM 71.6 °F 51.8 °F 50% 29.91 in 10.0 mi SSE 13.8 mph 20.7 mph N/A   Mostly Cloudy
3:15 PM 71.6 °F 51.8 °F 50% 29.91 in 10.0 mi SSE 11.5 mph 16.1 mph N/A   Mostly Cloudy
3:35 PM 71.6 °F 51.8 °F 50% 29.91 in 10.0 mi SSE 9.2 mph - N/A   Scattered Clouds
3:55 PM 71.6 °F 51.8 °F 50% 29.90 in 10.0 mi South 4.6 mph - N/A   Clear
4:15 PM 71.6 °F 51.8 °F 50% 29.90 in 10.0 mi SSE 4.6 mph - N/A   Clear
4:35 PM 71.6 °F 51.8 °F 50% 29.88 in 10.0 mi SSE 8.1 mph - N/A   Clear
4:55 PM 71.6 °F 51.8 °F 50% 29.87 in 10.0 mi South 6.9 mph - N/A   Clear
5:15 PM 73.4 °F 51.8 °F 47% 29.87 in 10.0 mi SSE 10.4 mph - N/A   Clear
5:35 PM 73.4 °F 51.8 °F 47% 29.86 in 10.0 mi SSE 4.6 mph - N/A   Clear
5:55 PM 73.4 °F 51.8 °F 47% 29.85 in 10.0 mi SSE 6.9 mph - N/A   Clear
6:15 PM 73.4 °F 51.8 °F 47% 29.84 in 10.0 mi SSE 9.2 mph - N/A   Clear
6:35 PM 71.6 °F 51.8 °F 50% 29.84 in 10.0 mi SSE 8.1 mph - N/A   Clear
6:55 PM 69.8 °F 51.8 °F 53% 29.84 in 10.0 mi South 9.2 mph - N/A   Clear
7:15 PM 68.0 °F 51.8 °F 56% 29.84 in 10.0 mi South 16.1 mph - N/A   Clear
7:35 PM 68.0 °F 51.8 °F 56% 29.85 in 10.0 mi SSE 18.4 mph 24.2 mph N/A   Clear
7:55 PM 64.4 °F 53.6 °F 68% 29.86 in 10.0 mi SSE 21.9 mph - N/A   Clear
8:15 PM 64.4 °F 51.8 °F 64% 29.87 in 10.0 mi SE 21.9 mph 31.1 mph N/A   Clear
8:35 PM 64.4 °F 51.8 °F 64% 29.85 in 10.0 mi ESE 16.1 mph 21.9 mph N/A   Clear
8:55 PM 64.4 °F 51.8 °F 64% 29.85 in 10.0 mi ESE 15.0 mph - N/A   Clear
9:15 PM 62.6 °F 51.8 °F 68% 29.85 in 10.0 mi East 13.8 mph 20.7 mph N/A   Clear
9:35 PM 64.4 °F 51.8 °F 64% 29.83 in 10.0 mi East 17.3 mph 23.0 mph N/A   Clear
9:55 PM 64.4 °F 51.8 °F 64% 29.84 in 10.0 mi ESE 17.3 mph 21.9 mph N/A   Clear
10:15 PM 64.4 °F 53.6 °F 68% 29.83 in 10.0 mi East 13.8 mph 19.6 mph N/A   Clear
10:35 PM 64.4 °F 53.6 °F 68% 29.82 in 10.0 mi ESE 13.8 mph - N/A   Clear
10:55 PM 64.4 °F 53.6 °F 68% 29.83 in 10.0 mi North - - N/A   Clear
11:15 PM 62.6 °F 53.6 °F 72% 29.84 in 10.0 mi SSE 8.1 mph - N/A   Clear
11:35 PM 60.8 °F 53.6 °F 77% 29.89 in 10.0 mi West 15.0 mph 19.6 mph N/A   Clear
11:55 PM 60.8 °F 53.6 °F 77% 29.91 in 10.0 mi NW 17.3 mph 26.5 mph N/A   Mostly Cloudy